Location: Columbia
(38.9520°N, 92.3340°W)
Time: 09:55:53
(UTC-05:00)

Daily predictions for brighter satellites

Satellite Brightness Start Highest point End
(mag) Time Altitude Azimuth Time Altitude Azimuth Time Altitude Azimuth
Resurs 1-3 4.0 20:51:26 10° S 20:55:47 68° WSW 21:00:10 10° NNW
Cosmos 2074 Rocket 4.1 20:50:16 10° N 20:56:29 64° E 21:02:42 10° SSE
Aureole 3 Rocket 3.5 20:52:33 10° S 20:58:37 67° E 21:02:57 10° NNE
Cosmos 1455 Rocket 4.2 20:57:58 10° NNW 21:02:08 45° W 21:06:15 10° SSW
Cosmos 2184 Rocket 4.1 20:55:49 10° N 21:02:09 68° E 21:08:22 10° SSE
Meteor 1-29 3.4 20:59:51 10° NNE 21:03:03 39° E 21:06:13 10° S
Cosmos 1437 Rocket 4.1 21:02:59 10° NNE 21:06:09 24° ENE 21:09:19 10° SE
ASTEX 1 4.1 21:01:43 10° SE 21:06:11 37° ENE 21:10:40 10° NNE
Cosmos 1939 Rocket 3.0 21:02:43 10° SSE 21:06:28 53° ENE 21:10:15 10° N
Meteor 2-4 Rocket 3.8 21:01:01 10° S 21:06:37 67° E 21:12:24 10° NNE
Cosmos 1943 Rocket 4.4 21:03:45 10° NW 21:07:59 22° W 21:12:10 10° SSW
PSLV R/B 3.2 21:11:13 10° WNW 21:14:19 62° SSW 21:16:58 13° ESE
Resurs 01 Rocket 3.2 21:10:31 10° SSW 21:14:35 36° W 21:18:41 10° NNW
Hubble Space Telescope 2.8 21:15:08 10° S 21:16:08 11° SSE 21:17:02 10° SSE
Spot 1 4.1 21:12:31 10° SSE 21:16:59 81° ENE 21:21:14 10° N
Cosmos 1980 Rocket 4.4 21:19:34 10° NNE 21:21:21 11° NE 21:23:07 10° ENE
Helios 1A 3.1 21:19:31 10° S 21:23:43 76° WSW 21:27:56 10° NNW
ARGOS 4.3 21:20:51 12° ESE 21:24:54 27° ENE 21:29:24 10° N
Nadezhda 1 Rocket 4.1 21:19:07 10° S 21:25:29 85° E 21:31:55 10° N
Cosmos 405 Rocket 4.5 21:23:06 10° SW 21:26:33 34° WNW 21:30:07 10° N
SL-27 R/B 4.2 21:26:52 10° SW 21:30:16 37° WNW 21:33:41 10° N
Cosmos 1624 Rocket 4.2 21:26:03 10° NNW 21:31:18 61° ENE 21:35:41 15° SSE
Cosmos 1441 Rocket 3.8 21:28:58 10° SSW 21:32:37 57° W 21:36:20 10° N
Cosmos 2228 4.4 21:30:21 10° NNE 21:33:45 22° ENE 21:35:49 16° ESE
NOSS 8 (E) 4.5 21:30:42 10° SSW 21:34:06 57° ESE 21:37:39 10° NE
Cosmos 921 Rocket 3.8 21:30:05 10° N 21:34:14 37° ENE 21:37:02 18° SE
Tiangong 2 2.4 21:32:38 10° WNW 21:35:40 39° N 21:38:41 10° ENE
Helios 1B rocket 3.4 21:35:26 10° N 21:39:26 51° WNW 21:43:27 10° SSW
NOAA 11 4.5 21:35:59 15° SE 21:40:15 51° ENE 21:45:30 10° N
H-2A R/B 3.5 21:38:01 14° ESE 21:40:48 22° ENE 21:44:37 10° NNE
Cosmos 2154 Rocket 4.0 21:40:14 10° N 21:46:37 82° E 21:52:34 12° S
CZ-3A R/B 0.4 21:44:43 10° SW 21:49:21 84° NW 21:51:08 10° NE
Envisat 4.1 21:45:26 10° SSW 21:50:13 41° W 21:55:01 10° NNW
Cosmos 2056 Rocket 3.4 21:45:48 10° NNW 21:50:59 86° ENE 21:54:40 19° SSE
Cosmos 1892 Rocket 3.5 21:49:00 13° S 21:52:50 65° E 21:57:12 10° NNE
YAOGAN 6 3.2 21:54:21 15° S 21:57:06 51° W 22:00:33 10° NNW
Terra 3.7 21:55:30 13° E 21:57:22 16° ENE 22:00:13 10° NNE
Meteor 1-4 Rocket 4.0 21:54:51 10° NNE 21:57:40 21° ENE 21:58:16 21° E
Cosmos 2082 Rocket 2.3 21:52:33 10° S 21:58:05 56° ESE 22:03:37 10° NNE
Okean 2 4.0 21:57:32 10° SSW 22:01:33 56° W 22:05:35 10° N
Cosmos 2278 3.7 21:56:00 10° NNW 22:01:43 73° ENE 22:05:10 24° SSE
Cosmos 1606 Rocket 3.6 22:00:34 10° N 22:04:53 78° W 22:07:45 21° S
Cosmos 1025 Rocket 4.4 22:03:45 10° SW 22:07:41 37° WNW 22:11:40 10° N
SPOT 5 2.7 22:07:21 30° SE 22:09:18 61° ENE 22:13:38 10° N
Cosmos 839 Rocket 4.4 22:03:24 10° NNW 22:10:06 89° NE 22:15:29 23° SSE
Cosmos 1726 Rocket 3.6 22:09:29 10° N 22:13:47 74° W 22:16:14 25° S
SL-24 DEB 4.2 22:12:27 28° SSE 22:14:50 73° E 22:19:28 10° N
COSMOS 2487 3.0 22:11:37 10° SSW 22:15:08 60° WNW 22:18:41 10° N
Cosmos 1656 3.7 22:10:23 10° NNW 22:15:50 67° ENE 22:18:29 31° SE
Cosmos 1697 Rocket 3.1 22:11:41 10° NNW 22:17:07 48° ENE 22:19:38 29° ESE
SL-08 RB Rocket 3.7 22:16:19 34° SE 22:18:06 64° ENE 22:22:32 10° N
Cosmos 2369 3.8 22:16:35 10° NNW 22:22:19 77° WSW 22:25:22 29° SSE
Cosmos 2341 Rocket 4.2 22:16:18 10° N 22:22:38 72° W 22:27:24 19° S
Cosmos 1452 Rocket 3.5 22:17:32 10° NNW 22:22:47 67° ENE 22:25:00 35° SE
MOS 1-B Rocket 4.2 22:19:43 21° S 22:23:43 73° WSW 22:30:16 10° NNW
USA 245 2.8 22:24:37 52° NNW 22:24:37 52° NNW 22:26:26 10° NNW
Timation 2 Rocket 4.0 22:20:08 18° S 22:24:47 56° ESE 22:30:48 10° NNE
ERS-1 Rocket 3.8 22:21:27 17° SSW 22:25:06 46° W 22:29:56 10° NNW
ISS -0.5 22:24:29 10° NW 22:25:53 12° NNW 22:27:17 10° N
MetOp-A 4.4 22:22:43 22° S 22:26:09 64° WSW 22:31:29 10° NNW
SL-16 R/B 4.4 22:23:44 10° NNE 22:26:31 14° NE 22:29:18 10° ENE
Cosmos 2218 Rocket 4.0 22:24:41 10° N 22:30:50 68° E 22:33:41 33° SSE
Cosmos 1833 Rocket 2.7 22:25:18 10° SSW 22:30:55 83° WNW 22:36:35 10° NNE
SPOT 1/Viking Rocket 3.5 22:30:09 36° SSE 22:32:16 77° ENE 22:37:26 10° N
OAO 2 Rocket 4.1 22:28:44 10° W 22:33:07 32° SSW 22:33:36 32° S
Cosmos 2058 Rocket 3.4 22:29:28 10° NNW 22:33:50 61° W 22:35:48 31° SSW
Nimbus 7 Rocket 4.4 22:30:49 10° NNE 22:36:55 88° ESE 22:41:17 20° SSW
Cosmos 1842 4.5 22:38:51 28° ENE 22:38:51 28° ENE 22:41:39 10° NNE
Cosmos 1271 Rocket 3.9 22:37:15 10° NNE 22:40:35 29° ENE 22:40:35 29° ENE
H-2A R/B 2.6 22:48:48 44° E 22:49:23 47° ENE 22:53:44 10° N
Cosmos 1544 4.5 22:47:01 10° NNE 22:49:33 27° ENE 22:49:33 27° ENE
Cosmos 1812 Rocket 3.6 22:48:41 10° N 22:53:07 60° E 22:53:29 58° ESE
Nadezhda 3 Rocket 4.4 22:53:46 40° SE 22:55:19 47° E 23:01:22 10° NNE
USA 229 DEB 4.0 22:49:32 10° NNW 22:56:39 62° NE 22:59:43 36° ESE
USA 229 4.0 22:49:38 10° NNW 22:56:44 62° NE 22:59:49 36° ESE
Meteor 2-21 4.4 22:52:28 10° N 22:58:32 81° W 23:00:50 40° S
Cosmos 1626 Rocket 3.8 22:58:52 46° SW 22:59:57 64° W 23:04:15 10° N
Cosmos 158 Rocket 3.9 22:58:44 44° SSW 23:00:30 85° ESE 23:05:55 10° NNE
Meteor 2-21 Rocket 4.3 22:57:19 10° N 23:03:25 89° E 23:05:20 46° S
ARGOS 4.2 23:02:21 24° SSW 23:04:56 38° W 23:09:58 10° NNW
Cosmos 1980 Rocket 2.2 23:00:43 10° NNW 23:06:23 73° ENE 23:07:36 54° SE
CZ-4 R/B 4.0 23:03:09 10° NNE 23:08:07 57° E 23:08:17 56° ESE
Cosmos 1953 3.5 23:08:03 10° N 23:11:08 32° ENE 23:11:08 32° ENE
Tiangong 2 2.8 23:09:34 10° WNW 23:11:33 33° NW 23:11:33 33° NW
Cosmos 1825 Rocket 4.0 23:14:31 47° ENE 23:14:31 47° ENE 23:18:03 10° NNE
CZ-4B R/B 3.6 23:10:06 10° NNE 23:15:08 56° E 23:15:13 56° ESE
Cosmos 2322 Rocket 3.3 23:13:03 10° N 23:18:10 33° ENE 23:19:28 30° E
Cosmos 1766 3.6 23:14:29 10° NNW 23:18:02 60° WNW 23:18:02 60° WNW
Landsat 7 4.2 23:18:53 48° SW 23:19:37 53° W 23:24:17 10° NNW
H-2A R/B 2.9 23:18:38 34° SW 23:19:56 40° W 23:24:41 10° NNW
Meteor 1-21 4.4 23:23:48 43° SSW 23:25:38 68° W 23:31:23 10° N
Cosmos 1470 4.4 23:29:50 10° NNE 23:32:23 28° NE 23:32:23 28° NE
Lacrosse 5 rocket 3.2 23:30:02 10° NNW 23:34:00 27° NE 23:35:12 24° ENE
Terra 2.2 23:34:23 53° WSW 23:34:39 53° W 23:39:19 10° NNW
CZ-2C R/B 4.2 23:30:56 10° NE 23:34:30 23° E 23:34:30 23° E
Cosmos-2242 4.4 23:34:20 10° NNE 23:37:18 29° NE 23:37:18 29° NE
Cosmos 1535 Rocket 4.5 23:32:40 10° N 23:38:45 62° E 23:39:28 57° ESE
Cosmos 2082 Rocket 4.5 23:38:16 10° WSW 23:42:31 21° NW 23:46:47 10° N
Cosmos 1805 4.3 23:43:07 10° NNW 23:46:02 42° NW 23:46:02 42° NW
Meteor 2-8 Rocket 4.5 23:45:43 57° SSW 23:47:01 76° W 23:53:12 10° N
BREEZE-M DEB (TANK) 4.0 23:51:06 27° NNE 23:51:06 27° NNE 23:54:04 10° NE
Cosmos 389 Rocket 4.4 23:50:42 10° NNW 23:52:32 29° NNW 23:52:32 29° NNW
Cosmos 1758 4.4 23:50:58 10° NNW 23:53:52 42° NW 23:53:52 42° NW
